Time,TemperatureF,DewpointF,PressureIn,WindDirection,WindDirectionDegrees,WindSpeedMPH,WindSpeedGustMPH,Humidity,HourlyPrecipIn,Conditions,Clouds,dailyrainin,SoftwareType,DateUTC
2013-08-05 00:01:00,61.7,53.3,29.92,NW,309,0.0,3.0,74,0.00,,,0.00,Wunderground v.1.15,2013-08-05 04:01:00,
2013-08-05 00:06:00,61.5,53.1,29.91,NW,309,0.0,3.0,74,0.00,,,0.00,Wunderground v.1.15,2013-08-05 04:06:00,
2013-08-05 00:07:00,61.5,53.1,29.91,NW,309,0.0,3.0,74,0.00,,,0.00,Wunderground v.1.15,2013-08-05 04:07:00,
2013-08-05 00:11:00,61.6,53.2,29.92,NW,309,0.0,2.0,74,0.00,,,0.00,Wunderground v.1.15,2013-08-05 04:11:00,
2013-08-05 00:15:00,61.6,53.6,29.92,NW,309,2.0,2.0,75,0.00,,,0.00,Wunderground v.1.15,2013-08-05 04:15:00,
2013-08-05 00:20:00,61.5,53.5,29.92,NW,309,0.0,1.0,75,0.00,,,0.00,Wunderground v.1.15,2013-08-05 04:20:00,
2013-08-05 00:26:00,61.3,53.3,29.92,NW,309,0.0,3.0,75,0.00,,,0.00,Wunderground v.1.15,2013-08-05 04:26:00,
2013-08-05 00:31:00,61.1,53.5,29.92,NW,309,0.0,0.0,76,0.00,,,0.00,Wunderground v.1.15,2013-08-05 04:31:00,
2013-08-05 00:35:00,60.7,53.1,29.92,NW,309,0.0,1.0,76,0.00,,,0.00,Wunderground v.1.15,2013-08-05 04:35:00,
2013-08-05 00:41:00,60.3,53.1,29.91,NW,309,0.0,0.0,77,0.00,,,0.00,Wunderground v.1.15,2013-08-05 04:41:00,
2013-08-05 00:46:00,59.9,53.0,29.91,NW,309,0.0,1.0,78,0.00,,,0.00,Wunderground v.1.15,2013-08-05 04:46:00,
2013-08-05 00:51:00,59.7,52.8,29.91,NW,309,0.0,0.0,78,0.00,,,0.00,Wunderground v.1.15,2013-08-05 04:51:00,
2013-08-05 00:56:00,59.6,52.7,29.91,NW,309,0.0,4.0,78,0.00,,,0.00,Wunderground v.1.15,2013-08-05 04:56:00,
2013-08-05 01:02:00,59.5,52.6,29.92,NW,309,0.0,0.0,78,0.00,,,0.00,Wunderground v.1.15,2013-08-05 05:02:00,
2013-08-05 01:08:00,59.5,52.6,29.92,NW,309,0.0,0.0,78,0.00,,,0.00,Wunderground v.1.15,2013-08-05 05:08:00,
2013-08-05 01:14:00,59.3,52.4,29.91,NW,309,0.0,3.0,78,0.00,,,0.00,Wunderground v.1.15,2013-08-05 05:14:00,
2013-08-05 01:19:00,59.2,52.3,29.92,NW,309,0.0,3.0,78,0.00,,,0.00,Wunderground v.1.15,2013-08-05 05:19:00,
2013-08-05 01:24:00,59.1,51.9,29.91,NW,309,0.0,0.0,77,0.00,,,0.00,Wunderground v.1.15,2013-08-05 05:24:00,
2013-08-05 01:30:00,59.0,51.8,29.92,NW,309,0.0,0.0,77,0.00,,,0.00,Wunderground v.1.15,2013-08-05 05:30:00,
2013-08-05 01:36:00,59.0,51.8,29.91,NW,309,0.0,2.0,77,0.00,,,0.00,Wunderground v.1.15,2013-08-05 05:36:00,
2013-08-05 01:40:00,59.1,51.5,29.91,North,355,0.0,1.0,76,0.00,,,0.00,Wunderground v.1.15,2013-08-05 05:40:00,
2013-08-05 01:47:00,59.5,51.9,29.91,NW,320,0.0,4.0,76,0.00,,,0.00,Wunderground v.1.15,2013-08-05 05:47:00,
2013-08-05 01:52:00,59.5,51.6,29.91,NW,319,0.0,1.0,75,0.00,,,0.00,Wunderground v.1.15,2013-08-05 05:52:00,
2013-08-05 01:58:00,59.4,51.5,29.91,NW,320,0.0,1.0,75,0.00,,,0.00,Wunderground v.1.15,2013-08-05 05:58:00,
2013-08-05 02:03:00,59.1,51.2,29.91,NW,320,1.0,1.0,75,0.00,,,0.00,Wunderground v.1.15,2013-08-05 06:03:00,
2013-08-05 02:09:00,59.3,51.7,29.91,NW,320,0.0,2.0,76,0.00,,,0.00,Wunderground v.1.15,2013-08-05 06:09:00,
2013-08-05 02:13:00,59.3,51.7,29.91,NW,320,0.0,0.0,76,0.00,,,0.00,Wunderground v.1.15,2013-08-05 06:13:00,
2013-08-05 02:20:00,59.2,51.6,29.91,NW,319,1.0,1.0,76,0.00,,,0.00,Wunderground v.1.15,2013-08-05 06:20:00,
2013-08-05 02:25:00,59.0,51.4,29.91,NW,320,0.0,2.0,76,0.00,,,0.00,Wunderground v.1.15,2013-08-05 06:25:00,
2013-08-05 02:31:00,59.0,51.8,29.91,NW,320,0.0,0.0,77,0.00,,,0.00,Wunderground v.1.15,2013-08-05 06:31:00,
2013-08-05 02:36:00,58.7,51.5,29.91,NW,320,0.0,0.0,77,0.00,,,0.00,Wunderground v.1.15,2013-08-05 06:36:00,
2013-08-05 02:42:00,58.2,51.4,29.91,NW,320,0.0,0.0,78,0.00,,,0.00,Wunderground v.1.15,2013-08-05 06:42:00,
2013-08-05 02:48:00,57.7,51.2,29.91,NW,319,0.0,0.0,79,0.00,,,0.00,Wunderground v.1.15,2013-08-05 06:48:00,
2013-08-05 02:53:00,57.4,50.9,29.91,NW,320,0.0,0.0,79,0.00,,,0.00,Wunderground v.1.15,2013-08-05 06:53:00,
2013-08-05 02:58:00,57.1,51.0,29.91,NW,320,0.0,0.0,80,0.00,,,0.00,Wunderground v.1.15,2013-08-05 06:58:00,
2013-08-05 03:03:00,56.8,51.0,29.91,NW,320,0.0,0.0,81,0.00,,,0.00,Wunderground v.1.15,2013-08-05 07:03:00,
2013-08-05 03:08:00,56.6,50.8,29.91,NW,319,0.0,0.0,81,0.00,,,0.00,Wunderground v.1.15,2013-08-05 07:08:00,
2013-08-05 03:13:00,56.3,50.9,29.91,NW,320,0.0,0.0,82,0.00,,,0.00,Wunderground v.1.15,2013-08-05 07:13:00,
2013-08-05 03:18:00,56.2,50.8,29.92,NW,320,0.0,1.0,82,0.00,,,0.00,Wunderground v.1.15,2013-08-05 07:18:00,
2013-08-05 03:23:00,56.3,50.9,29.92,NW,320,0.0,1.0,82,0.00,,,0.00,Wunderground v.1.15,2013-08-05 07:23:00,
2013-08-05 03:28:00,56.4,51.0,29.92,NW,320,0.0,1.0,82,0.00,,,0.00,Wunderground v.1.15,2013-08-05 07:28:00,
2013-08-05 03:33:00,56.3,50.9,29.92,NW,320,0.0,0.0,82,0.00,,,0.00,Wunderground v.1.15,2013-08-05 07:33:00,
2013-08-05 03:38:00,56.3,50.9,29.92,NW,320,0.0,0.0,82,0.00,,,0.00,Wunderground v.1.15,2013-08-05 07:38:00,
2013-08-05 03:43:00,56.2,50.8,29.92,NW,320,0.0,0.0,82,0.00,,,0.00,Wunderground v.1.15,2013-08-05 07:43:00,
2013-08-05 03:48:00,56.0,50.6,29.92,NW,320,0.0,0.0,82,0.00,,,0.00,Wunderground v.1.15,2013-08-05 07:48:00,
2013-08-05 03:53:00,55.9,50.5,29.92,NW,319,0.0,0.0,82,0.00,,,0.00,Wunderground v.1.15,2013-08-05 07:53:00,
2013-08-05 03:58:00,55.8,50.7,29.92,NW,320,0.0,1.0,83,0.00,,,0.00,Wunderground v.1.15,2013-08-05 07:58:00,
2013-08-05 04:03:00,55.7,50.6,29.92,NW,320,0.0,0.0,83,0.00,,,0.00,Wunderground v.1.15,2013-08-05 08:03:00,
2013-08-05 04:08:00,55.5,50.4,29.92,NW,319,0.0,3.0,83,0.00,,,0.00,Wunderground v.1.15,2013-08-05 08:08:00,
2013-08-05 04:14:00,55.4,50.6,29.92,NW,319,0.0,1.0,84,0.00,,,0.00,Wunderground v.1.15,2013-08-05 08:14:00,
2013-08-05 04:19:00,55.4,50.6,29.92,NW,319,0.0,1.0,84,0.00,,,0.00,Wunderground v.1.15,2013-08-05 08:19:00,
2013-08-05 04:24:00,55.1,50.4,29.92,NW,319,0.0,1.0,84,0.00,,,0.00,Wunderground v.1.15,2013-08-05 08:24:00,
2013-08-05 04:29:00,55.0,50.6,29.93,NW,319,0.0,1.0,85,0.00,,,0.00,Wunderground v.1.15,2013-08-05 08:29:00,
2013-08-05 04:34:00,54.8,50.4,29.93,NW,319,0.0,0.0,85,0.00,,,0.00,Wunderground v.1.15,2013-08-05 08:34:00,
2013-08-05 04:39:00,54.6,50.5,29.93,NW,320,0.0,2.0,86,0.00,,,0.00,Wunderground v.1.15,2013-08-05 08:39:00,
2013-08-05 04:44:00,54.4,50.3,29.93,NW,320,0.0,1.0,86,0.00,,,0.00,Wunderground v.1.15,2013-08-05 08:44:00,
2013-08-05 04:49:00,54.2,50.1,29.93,NW,319,0.0,1.0,86,0.00,,,0.00,Wunderground v.1.15,2013-08-05 08:49:00,
2013-08-05 04:54:00,54.2,50.1,29.93,NW,320,0.0,0.0,86,0.00,,,0.00,Wunderground v.1.15,2013-08-05 08:54:00,
2013-08-05 04:59:00,54.2,50.1,29.93,NW,319,0.0,0.0,86,0.00,,,0.00,Wunderground v.1.15,2013-08-05 08:59:00,
2013-08-05 05:04:00,54.1,50.3,29.94,NW,319,0.0,0.0,87,0.00,,,0.00,Wunderground v.1.15,2013-08-05 09:04:00,
2013-08-05 05:09:00,54.0,50.2,29.94,NW,320,0.0,1.0,87,0.00,,,0.00,Wunderground v.1.15,2013-08-05 09:09:00,
2013-08-05 05:14:00,53.8,50.0,29.94,NW,320,0.0,0.0,87,0.00,,,0.00,Wunderground v.1.15,2013-08-05 09:14:00,
2013-08-05 05:20:00,53.6,49.8,29.94,NW,320,0.0,0.0,87,0.00,,,0.00,Wunderground v.1.15,2013-08-05 09:20:00,
2013-08-05 05:25:00,53.4,49.6,29.95,NW,320,0.0,0.0,87,0.00,,,0.00,Wunderground v.1.15,2013-08-05 09:25:00,
2013-08-05 05:30:00,53.5,50.0,29.95,NW,319,2.0,3.0,88,0.00,,,0.00,Wunderground v.1.15,2013-08-05 09:30:00,
2013-08-05 05:35:00,53.8,50.3,29.95,NW,319,0.0,3.0,88,0.00,,,0.00,Wunderground v.1.15,2013-08-05 09:35:00,
2013-08-05 05:40:00,54.0,50.5,29.96,NW,320,0.0,1.0,88,0.00,,,0.00,Wunderground v.1.15,2013-08-05 09:40:00,
2013-08-05 05:45:00,54.1,50.6,29.95,NW,320,0.0,1.0,88,0.00,,,0.00,Wunderground v.1.15,2013-08-05 09:45:00,
2013-08-05 05:50:00,54.1,50.3,29.96,NW,319,0.0,0.0,87,0.00,,,0.00,Wunderground v.1.15,2013-08-05 09:50:00,
2013-08-05 05:55:00,54.0,50.2,29.96,NW,320,0.0,0.0,87,0.00,,,0.00,Wunderground v.1.15,2013-08-05 09:55:00,
2013-08-05 06:00:00,53.9,50.1,29.96,NW,320,0.0,0.0,87,0.00,,,0.00,Wunderground v.1.15,2013-08-05 10:00:00,
2013-08-05 06:05:00,53.7,50.2,29.96,ENE,78,0.0,1.0,88,0.00,,,0.00,Wunderground v.1.15,2013-08-05 10:05:00,
2013-08-05 06:11:00,53.6,50.1,29.96,ENE,78,0.0,1.0,88,0.00,,,0.00,Wunderground v.1.15,2013-08-05 10:11:00,
2013-08-05 06:16:00,53.5,50.0,29.96,ENE,78,0.0,1.0,88,0.00,,,0.00,Wunderground v.1.15,2013-08-05 10:16:00,
2013-08-05 06:21:00,53.5,50.0,29.96,ENE,78,0.0,0.0,88,0.00,,,0.00,Wunderground v.1.15,2013-08-05 10:21:00,
2013-08-05 06:26:00,53.6,50.1,29.97,ENE,78,0.0,0.0,88,0.00,,,0.00,Wunderground v.1.15,2013-08-05 10:26:00,
2013-08-05 06:31:00,53.9,50.7,29.97,SSW,213,0.0,2.0,89,0.00,,,0.00,Wunderground v.1.15,2013-08-05 10:31:00,
2013-08-05 06:36:00,54.6,51.4,29.97,SSW,213,0.0,4.0,89,0.00,,,0.00,Wunderground v.1.15,2013-08-05 10:36:00,
2013-08-05 06:40:00,55.3,51.8,29.97,SSW,213,2.0,2.0,88,0.00,,,0.00,Wunderground v.1.15,2013-08-05 10:40:00,
2013-08-05 06:46:00,56.0,52.2,29.97,SW,217,0.0,3.0,87,0.00,,,0.00,Wunderground v.1.15,2013-08-05 10:46:00,
2013-08-05 06:51:00,56.9,52.8,29.97,NW,311,3.0,4.0,86,0.00,,,0.00,Wunderground v.1.15,2013-08-05 10:51:00,
2013-08-05 06:55:00,57.8,53.0,29.97,WNW,295,0.0,6.0,84,0.00,,,0.00,Wunderground v.1.15,2013-08-05 10:55:00,
2013-08-05 07:01:00,58.7,53.2,29.97,WNW,287,4.0,5.0,82,0.00,,,0.00,Wunderground v.1.15,2013-08-05 11:01:00,
2013-08-05 07:05:00,59.6,53.4,29.97,WNW,302,2.0,6.0,80,0.00,,,0.00,Wunderground v.1.15,2013-08-05 11:05:00,
2013-08-05 07:11:00,60.4,53.2,29.97,WNW,302,1.0,4.0,77,0.00,,,0.00,Wunderground v.1.15,2013-08-05 11:11:00,
2013-08-05 07:16:00,61.1,53.1,29.97,NW,322,0.0,9.0,75,0.00,,,0.00,Wunderground v.1.15,2013-08-05 11:16:00,
2013-08-05 07:21:00,61.6,53.2,29.97,NW,306,10.0,10.0,74,0.00,,,0.00,Wunderground v.1.15,2013-08-05 11:21:00,
2013-08-05 07:26:00,62.1,53.0,29.97,NW,314,0.0,10.0,72,0.00,,,0.00,Wunderground v.1.15,2013-08-05 11:26:00,
2013-08-05 07:31:00,62.5,53.0,29.97,WNW,288,4.0,12.0,71,0.00,,,0.00,Wunderground v.1.15,2013-08-05 11:31:00,
2013-08-05 07:36:00,62.7,52.8,29.97,NNW,331,4.0,12.0,70,0.00,,,0.00,Wunderground v.1.15,2013-08-05 11:36:00,
2013-08-05 07:41:00,62.9,52.6,29.98,West,267,11.0,13.0,69,0.00,,,0.00,Wunderground v.1.15,2013-08-05 11:41:00,
2013-08-05 07:46:00,63.1,52.4,29.97,NW,322,2.0,13.0,68,0.00,,,0.00,Wunderground v.1.15,2013-08-05 11:46:00,
2013-08-05 07:51:00,63.5,52.3,29.98,NW,307,10.0,10.0,67,0.00,,,0.00,Wunderground v.1.15,2013-08-05 11:51:00,
2013-08-05 07:56:00,63.5,51.9,29.98,NW,317,10.0,12.0,66,0.00,,,0.00,Wunderground v.1.15,2013-08-05 11:56:00,
2013-08-05 08:01:00,63.5,52.3,29.98,NW,322,4.0,6.0,67,0.00,,,0.00,Wunderground v.1.15,2013-08-05 12:01:00,
2013-08-05 08:06:00,63.7,51.7,29.98,WNW,294,5.0,14.0,65,0.00,,,0.00,Wunderground v.1.15,2013-08-05 12:06:00,
2013-08-05 08:11:00,63.8,51.8,29.98,NW,311,10.0,10.0,65,0.00,,,0.00,Wunderground v.1.15,2013-08-05 12:11:00,
2013-08-05 08:16:00,63.7,50.9,29.98,North,5,13.0,13.0,63,0.00,,,0.00,Wunderground v.1.15,2013-08-05 12:16:00,
2013-08-05 08:21:00,63.8,51.4,29.98,NW,313,6.0,11.0,64,0.00,,,0.00,Wunderground v.1.15,2013-08-05 12:21:00,
2013-08-05 08:26:00,63.9,51.5,29.98,WNW,302,5.0,13.0,64,0.00,,,0.00,Wunderground v.1.15,2013-08-05 12:26:00,
2013-08-05 08:32:00,64.1,51.2,29.98,WNW,299,9.0,13.0,63,0.00,,,0.00,Wunderground v.1.15,2013-08-05 12:32:00,
2013-08-05 08:36:00,64.3,51.4,29.98,NW,307,1.0,15.0,63,0.00,,,0.00,Wunderground v.1.15,2013-08-05 12:36:00,
2013-08-05 08:41:00,64.6,51.3,29.98,NW,323,6.0,10.0,62,0.00,,,0.00,Wunderground v.1.15,2013-08-05 12:41:00,
2013-08-05 08:47:00,64.8,51.5,29.98,NW,319,8.0,12.0,62,0.00,,,0.00,Wunderground v.1.15,2013-08-05 12:47:00,
2013-08-05 08:51:00,64.5,51.2,29.98,NW,308,12.0,13.0,62,0.00,,,0.00,Wunderground v.1.15,2013-08-05 12:51:00,
2013-08-05 08:57:00,64.7,50.9,29.98,West,271,7.0,14.0,61,0.00,,,0.00,Wunderground v.1.15,2013-08-05 12:57:00,
2013-08-05 09:02:00,65.0,50.3,29.98,NW,313,10.0,13.0,59,0.00,,,0.00,Wunderground v.1.15,2013-08-05 13:02:00,
2013-08-05 09:07:00,64.8,47.8,29.98,North,355,11.0,17.0,54,0.00,,,0.00,Wunderground v.1.15,2013-08-05 13:07:00,
2013-08-05 09:12:00,64.7,48.6,29.98,NW,313,10.0,15.0,56,0.00,,,0.00,Wunderground v.1.15,2013-08-05 13:12:00,
2013-08-05 09:17:00,65.0,48.4,29.98,West,273,9.0,16.0,55,0.00,,,0.00,Wunderground v.1.15,2013-08-05 13:17:00,
2013-08-05 09:22:00,65.0,46.9,29.98,North,9,10.0,14.0,52,0.00,,,0.00,Wunderground v.1.15,2013-08-05 13:22:00,
2013-08-05 09:27:00,64.8,46.2,29.98,WNW,298,15.0,18.0,51,0.00,,,0.00,Wunderground v.1.15,2013-08-05 13:27:00,
2013-08-05 09:32:00,65.0,46.9,29.98,WNW,288,8.0,14.0,52,0.00,,,0.00,Wunderground v.1.15,2013-08-05 13:32:00,
2013-08-05 09:37:00,65.1,47.0,29.98,North,360,14.0,16.0,52,0.00,,,0.00,Wunderground v.1.15,2013-08-05 13:37:00,
2013-08-05 09:42:00,64.7,46.7,29.98,NW,322,4.0,15.0,52,0.00,,,0.00,Wunderground v.1.15,2013-08-05 13:42:00,
2013-08-05 09:47:00,65.2,47.6,29.98,NW,309,8.0,16.0,53,0.00,,,0.00,Wunderground v.1.15,2013-08-05 13:47:00,
2013-08-05 09:52:00,65.7,47.6,29.98,NW,320,11.0,15.0,52,0.00,,,0.00,Wunderground v.1.15,2013-08-05 13:52:00,
2013-08-05 09:57:00,65.9,47.3,29.98,NW,314,3.0,15.0,51,0.00,,,0.00,Wunderground v.1.15,2013-08-05 13:57:00,
2013-08-05 10:02:00,66.1,47.4,29.98,WNW,294,9.0,13.0,51,0.00,,,0.00,Wunderground v.1.15,2013-08-05 14:02:00,
2013-08-05 10:07:00,66.6,47.9,29.98,NW,317,0.0,13.0,51,0.00,,,0.00,Wunderground v.1.15,2013-08-05 14:07:00,
2013-08-05 10:12:00,66.9,46.0,29.98,NW,313,10.0,11.0,47,0.00,,,0.00,Wunderground v.1.15,2013-08-05 14:12:00,
2013-08-05 10:17:00,66.5,45.6,29.98,West,271,10.0,17.0,47,0.00,,,0.00,Wunderground v.1.15,2013-08-05 14:17:00,
2013-08-05 10:22:00,66.4,46.1,29.98,NW,321,6.0,17.0,48,0.00,,,0.00,Wunderground v.1.15,2013-08-05 14:22:00,
2013-08-05 10:27:00,66.1,45.3,29.98,NNW,340,10.0,17.0,47,0.00,,,0.00,Wunderground v.1.15,2013-08-05 14:27:00,
2013-08-05 10:32:00,66.2,45.4,29.98,NNW,330,12.0,12.0,47,0.00,,,0.00,Wunderground v.1.15,2013-08-05 14:32:00,
2013-08-05 10:37:00,66.6,45.7,29.98,NW,325,10.0,15.0,47,0.00,,,0.00,Wunderground v.1.15,2013-08-05 14:37:00,
2013-08-05 10:42:00,66.8,45.9,29.98,NNW,331,5.0,14.0,47,0.00,,,0.00,Wunderground v.1.15,2013-08-05 14:42:00,
2013-08-05 10:47:00,66.9,46.0,29.98,NW,326,4.0,15.0,47,0.00,,,0.00,Wunderground v.1.15,2013-08-05 14:47:00,
2013-08-05 10:52:00,67.2,45.7,29.98,NNE,21,9.0,14.0,46,0.00,,,0.00,Wunderground v.1.15,2013-08-05 14:52:00,
2013-08-05 10:57:00,67.3,45.8,29.98,NNW,333,7.0,17.0,46,0.00,,,0.00,Wunderground v.1.15,2013-08-05 14:57:00,
2013-08-05 11:02:00,67.4,45.3,29.98,West,268,4.0,13.0,45,0.00,,,0.00,Wunderground v.1.15,2013-08-05 15:02:00,
2013-08-05 11:07:00,67.9,46.9,29.98,NNW,348,7.0,13.0,47,0.00,,,0.00,Wunderground v.1.15,2013-08-05 15:07:00,
2013-08-05 11:12:00,68.0,45.3,29.98,NNW,330,7.0,14.0,44,0.00,,,0.00,Wunderground v.1.15,2013-08-05 15:12:00,
2013-08-05 11:17:00,68.3,47.3,29.98,NW,311,9.0,14.0,47,0.00,,,0.00,Wunderground v.1.15,2013-08-05 15:17:00,
2013-08-05 11:22:00,68.0,46.4,29.98,WNW,300,10.0,17.0,46,0.00,,,0.00,Wunderground v.1.15,2013-08-05 15:22:00,
2013-08-05 11:27:00,68.2,45.4,29.98,WNW,294,10.0,18.0,44,0.00,,,0.00,Wunderground v.1.15,2013-08-05 15:27:00,
2013-08-05 11:32:00,68.4,45.6,29.98,WNW,294,6.0,14.0,44,0.00,,,0.00,Wunderground v.1.15,2013-08-05 15:32:00,
2013-08-05 11:37:00,68.7,47.1,29.98,NNW,340,6.0,18.0,46,0.00,,,0.00,Wunderground v.1.15,2013-08-05 15:37:00,
2013-08-05 11:42:00,69.2,46.4,29.98,North,360,2.0,10.0,44,0.00,,,0.00,Wunderground v.1.15,2013-08-05 15:42:00,
2013-08-05 11:47:00,69.7,46.2,29.98,WNW,303,13.0,18.0,43,0.00,,,0.00,Wunderground v.1.15,2013-08-05 15:47:00,
2013-08-05 11:52:00,69.7,46.8,29.98,North,360,3.0,12.0,44,0.00,,,0.00,Wunderground v.1.15,2013-08-05 15:52:00,
2013-08-05 11:57:00,69.7,46.8,29.98,NW,316,10.0,16.0,44,0.00,,,0.00,Wunderground v.1.15,2013-08-05 15:57:00,
2013-08-05 12:02:00,69.7,46.2,29.98,WSW,254,4.0,16.0,43,0.00,,,0.00,Wunderground v.1.15,2013-08-05 16:02:00,
2013-08-05 12:07:00,70.2,47.9,29.98,NNW,331,9.0,16.0,45,0.00,,,0.00,Wunderground v.1.15,2013-08-05 16:07:00,
2013-08-05 12:12:00,70.3,46.7,29.98,North,355,11.0,17.0,43,0.00,,,0.00,Wunderground v.1.15,2013-08-05 16:12:00,
2013-08-05 12:17:00,70.4,46.2,29.97,WNW,300,2.0,17.0,42,0.00,,,0.00,Wunderground v.1.15,2013-08-05 16:17:00,
2013-08-05 12:23:00,70.6,46.4,29.97,NW,317,3.0,15.0,42,0.00,,,0.00,Wunderground v.1.15,2013-08-05 16:23:00,
2013-08-05 12:27:00,71.2,48.2,29.97,NW,315,9.0,15.0,44,0.00,,,0.00,Wunderground v.1.15,2013-08-05 16:27:00,
2013-08-05 12:33:00,71.3,46.4,29.97,NNE,17,9.0,16.0,41,0.00,,,0.00,Wunderground v.1.15,2013-08-05 16:33:00,
2013-08-05 12:38:00,71.1,47.5,29.97,WNW,300,5.0,16.0,43,0.00,,,0.00,Wunderground v.1.15,2013-08-05 16:38:00,
2013-08-05 12:42:00,71.4,47.1,29.97,NNW,346,6.0,19.0,42,0.00,,,0.00,Wunderground v.1.15,2013-08-05 16:42:00,
2013-08-05 12:48:00,71.6,47.3,29.97,NW,315,12.0,19.0,42,0.00,,,0.00,Wunderground v.1.15,2013-08-05 16:48:00,
2013-08-05 12:53:00,71.9,48.8,29.96,NNE,18,10.0,16.0,44,0.00,,,0.00,Wunderground v.1.15,2013-08-05 16:53:00,
2013-08-05 12:58:00,71.6,46.6,29.96,NNE,19,9.0,16.0,41,0.00,,,0.00,Wunderground v.1.15,2013-08-05 16:58:00,
2013-08-05 13:03:00,71.7,47.4,29.96,NNE,16,10.0,17.0,42,0.00,,,0.00,Wunderground v.1.15,2013-08-05 17:03:00,
2013-08-05 13:09:00,71.7,48.0,29.96,NNW,327,0.0,17.0,43,0.00,,,0.00,Wunderground v.1.15,2013-08-05 17:09:00,
2013-08-05 13:13:00,72.3,47.9,29.96,NNW,336,7.0,16.0,42,0.00,,,0.00,Wunderground v.1.15,2013-08-05 17:13:00,
2013-08-05 13:19:00,72.6,48.8,29.96,WNW,290,6.0,17.0,43,0.00,,,0.00,Wunderground v.1.15,2013-08-05 17:19:00,
2013-08-05 13:24:00,73.0,48.5,29.96,WNW,282,1.0,12.0,42,0.00,,,0.00,Wunderground v.1.15,2013-08-05 17:24:00,
2013-08-05 13:29:00,73.1,46.7,29.96,NW,326,7.0,14.0,39,0.00,,,0.00,Wunderground v.1.15,2013-08-05 17:29:00,
2013-08-05 13:33:00,73.1,47.3,29.96,NW,313,12.0,15.0,40,0.00,,,0.00,Wunderground v.1.15,2013-08-05 17:33:00,
2013-08-05 13:38:00,72.8,47.1,29.96,NW,309,8.0,15.0,40,0.00,,,0.00,Wunderground v.1.15,2013-08-05 17:38:00,
2013-08-05 13:44:00,73.0,47.2,29.96,NNW,328,4.0,17.0,40,0.00,,,0.00,Wunderground v.1.15,2013-08-05 17:44:00,
2013-08-05 13:49:00,73.2,47.4,29.96,WNW,303,15.0,18.0,40,0.00,,,0.00,Wunderground v.1.15,2013-08-05 17:49:00,
2013-08-05 13:54:00,73.6,46.4,29.96,WNW,296,6.0,13.0,38,0.00,,,0.00,Wunderground v.1.15,2013-08-05 17:54:00,
2013-08-05 13:59:00,74.0,46.1,29.96,North,350,6.0,13.0,37,0.00,,,0.00,Wunderground v.1.15,2013-08-05 17:59:00,
2013-08-05 14:04:00,73.4,46.2,29.96,NW,311,3.0,12.0,38,0.00,,,0.00,Wunderground v.1.15,2013-08-05 18:04:00,
2013-08-05 14:09:00,73.7,47.2,29.96,NW,314,0.0,13.0,39,0.00,,,0.00,Wunderground v.1.15,2013-08-05 18:09:00,
2013-08-05 14:14:00,74.2,46.2,29.96,NW,311,7.0,15.0,37,0.00,,,0.00,Wunderground v.1.15,2013-08-05 18:14:00,
2013-08-05 14:19:00,74.4,47.1,29.96,WNW,302,3.0,15.0,38,0.00,,,0.00,Wunderground v.1.15,2013-08-05 18:19:00,
2013-08-05 14:24:00,74.4,45.7,29.96,WSW,237,6.0,14.0,36,0.00,,,0.00,Wunderground v.1.15,2013-08-05 18:24:00,
2013-08-05 14:29:00,74.2,44.8,29.96,North,360,13.0,16.0,35,0.00,,,0.00,Wunderground v.1.15,2013-08-05 18:29:00,
2013-08-05 14:34:00,73.9,44.5,29.96,NNE,12,11.0,15.0,35,0.00,,,0.00,Wunderground v.1.15,2013-08-05 18:34:00,
2013-08-05 14:39:00,73.7,45.1,29.96,North,10,5.0,15.0,36,0.00,,,0.00,Wunderground v.1.15,2013-08-05 18:39:00,
2013-08-05 14:44:00,74.0,46.8,29.96,NW,326,2.0,11.0,38,0.00,,,0.00,Wunderground v.1.15,2013-08-05 18:44:00,
2013-08-05 14:49:00,74.7,47.4,29.96,NW,304,8.0,14.0,38,0.00,,,0.00,Wunderground v.1.15,2013-08-05 18:49:00,
2013-08-05 14:54:00,75.2,45.7,29.96,NW,309,10.0,15.0,35,0.00,,,0.00,Wunderground v.1.15,2013-08-05 18:54:00,
2013-08-05 15:00:00,75.2,44.9,29.96,WNW,298,5.0,6.0,34,0.00,,,0.00,Wunderground v.1.15,2013-08-05 19:00:00,
2013-08-05 15:05:00,75.3,46.5,29.96,NW,313,5.0,14.0,36,0.00,,,0.00,Wunderground v.1.15,2013-08-05 19:05:00,
2013-08-05 15:10:00,75.4,47.3,29.96,NNW,333,10.0,10.0,37,0.00,,,0.00,Wunderground v.1.15,2013-08-05 19:10:00,
2013-08-05 15:15:00,75.4,45.1,29.96,WSW,240,5.0,11.0,34,0.00,,,0.00,Wunderground v.1.15,2013-08-05 19:15:00,
2013-08-05 15:20:00,75.7,44.5,29.96,WNW,299,9.0,13.0,33,0.00,,,0.00,Wunderground v.1.15,2013-08-05 19:20:00,
2013-08-05 15:25:00,75.8,45.4,29.96,WNW,284,3.0,16.0,34,0.00,,,0.00,Wunderground v.1.15,2013-08-05 19:25:00,
2013-08-05 15:30:00,75.8,46.2,29.96,North,5,1.0,7.0,35,0.00,,,0.00,Wunderground v.1.15,2013-08-05 19:30:00,
2013-08-05 15:35:00,76.0,44.0,29.96,NW,318,4.0,16.0,32,0.00,,,0.00,Wunderground v.1.15,2013-08-05 19:35:00,
2013-08-05 15:40:00,75.9,44.7,29.96,NNW,336,6.0,10.0,33,0.00,,,0.00,Wunderground v.1.15,2013-08-05 19:40:00,
2013-08-05 15:45:00,75.5,43.6,29.96,NNW,342,8.0,18.0,32,0.00,,,0.00,Wunderground v.1.15,2013-08-05 19:45:00,
2013-08-05 15:50:00,75.2,43.3,29.96,NW,313,9.0,9.0,32,0.00,,,0.00,Wunderground v.1.15,2013-08-05 19:50:00,
2013-08-05 15:55:00,75.3,42.6,29.96,NNW,348,7.0,15.0,31,0.00,,,0.00,Wunderground v.1.15,2013-08-05 19:55:00,
2013-08-05 16:00:00,75.5,43.6,29.96,NNW,327,6.0,11.0,32,0.00,,,0.00,Wunderground v.1.15,2013-08-05 20:00:00,
2013-08-05 16:05:00,75.8,43.8,29.96,NW,306,9.0,11.0,32,0.00,,,0.00,Wunderground v.1.15,2013-08-05 20:05:00,
2013-08-05 16:10:00,76.2,46.5,29.96,WSW,249,4.0,5.0,35,0.00,,,0.00,Wunderground v.1.15,2013-08-05 20:10:00,
2013-08-05 16:15:00,76.3,42.6,29.96,North,5,7.0,13.0,30,0.00,,,0.00,Wunderground v.1.15,2013-08-05 20:15:00,
2013-08-05 16:20:00,76.0,44.0,29.96,NNW,327,5.0,6.0,32,0.00,,,0.00,Wunderground v.1.15,2013-08-05 20:20:00,
2013-08-05 16:26:00,76.1,43.3,29.96,NNE,13,4.0,12.0,31,0.00,,,0.00,Wunderground v.1.15,2013-08-05 20:26:00,
2013-08-05 16:31:00,76.0,44.0,29.96,NNE,22,6.0,10.0,32,0.00,,,0.00,Wunderground v.1.15,2013-08-05 20:31:00,
2013-08-05 16:36:00,75.6,43.7,29.96,WNW,300,4.0,14.0,32,0.00,,,0.00,Wunderground v.1.15,2013-08-05 20:36:00,
2013-08-05 16:41:00,75.8,43.0,29.96,North,355,11.0,11.0,31,0.00,,,0.00,Wunderground v.1.15,2013-08-05 20:41:00,
2013-08-05 16:46:00,75.8,42.1,29.97,NNW,333,5.0,17.0,30,0.00,,,0.00,Wunderground v.1.15,2013-08-05 20:46:00,
2013-08-05 16:51:00,75.3,40.8,29.97,North,355,9.0,12.0,29,0.00,,,0.00,Wunderground v.1.15,2013-08-05 20:51:00,
2013-08-05 16:56:00,75.2,41.6,29.96,NNW,348,3.0,16.0,30,0.00,,,0.00,Wunderground v.1.15,2013-08-05 20:56:00,
2013-08-05 17:01:00,75.2,41.6,29.96,NW,310,5.0,12.0,30,0.00,,,0.00,Wunderground v.1.15,2013-08-05 21:01:00,
2013-08-05 17:06:00,75.5,42.7,29.96,NNW,337,4.0,13.0,31,0.00,,,0.00,Wunderground v.1.15,2013-08-05 21:06:00,
2013-08-05 17:11:00,75.7,42.9,29.96,WNW,298,2.0,9.0,31,0.00,,,0.00,Wunderground v.1.15,2013-08-05 21:11:00,
2013-08-05 17:17:00,75.7,42.9,29.96,NW,320,7.0,10.0,31,0.00,,,0.00,Wunderground v.1.15,2013-08-05 21:17:00,
2013-08-05 17:22:00,75.8,43.8,29.96,North,355,3.0,10.0,32,0.00,,,0.00,Wunderground v.1.15,2013-08-05 21:22:00,
2013-08-05 17:27:00,75.6,42.8,29.97,North,350,11.0,13.0,31,0.00,,,0.00,Wunderground v.1.15,2013-08-05 21:27:00,
2013-08-05 17:32:00,75.3,45.0,29.97,NW,309,4.0,12.0,34,0.00,,,0.00,Wunderground v.1.15,2013-08-05 21:32:00,
2013-08-05 17:37:00,75.3,45.0,29.97,NW,313,6.0,12.0,34,0.00,,,0.00,Wunderground v.1.15,2013-08-05 21:37:00,
2013-08-05 17:42:00,75.4,45.1,29.96,NW,309,4.0,5.0,34,0.00,,,0.00,Wunderground v.1.15,2013-08-05 21:42:00,
2013-08-05 17:47:00,75.4,44.3,29.96,North,360,3.0,10.0,33,0.00,,,0.00,Wunderground v.1.15,2013-08-05 21:47:00,
2013-08-05 17:52:00,75.0,43.1,29.97,NW,309,5.0,13.0,32,0.00,,,0.00,Wunderground v.1.15,2013-08-05 21:52:00,
2013-08-05 17:57:00,74.9,43.0,29.97,NNW,329,3.0,13.0,32,0.00,,,0.00,Wunderground v.1.15,2013-08-05 21:57:00,
2013-08-05 18:02:00,74.9,42.2,29.97,NNW,344,7.0,12.0,31,0.00,,,0.00,Wunderground v.1.15,2013-08-05 22:02:00,
2013-08-05 18:07:00,74.4,41.8,29.97,North,355,4.0,16.0,31,0.00,,,0.00,Wunderground v.1.15,2013-08-05 22:07:00,
2013-08-05 18:12:00,74.1,42.3,29.97,NW,316,7.0,17.0,32,0.00,,,0.00,Wunderground v.1.15,2013-08-05 22:12:00,
2013-08-05 18:17:00,74.0,43.1,29.97,NNE,16,3.0,17.0,33,0.00,,,0.00,Wunderground v.1.15,2013-08-05 22:17:00,
2013-08-05 18:22:00,73.8,42.1,29.98,NW,315,9.0,15.0,32,0.00,,,0.00,Wunderground v.1.15,2013-08-05 22:22:00,
2013-08-05 18:27:00,73.7,42.8,29.98,NW,316,3.0,15.0,33,0.00,,,0.00,Wunderground v.1.15,2013-08-05 22:27:00,
2013-08-05 18:32:00,73.6,43.5,29.98,NNE,13,2.0,10.0,34,0.00,,,0.00,Wunderground v.1.15,2013-08-05 22:32:00,
2013-08-05 18:37:00,73.4,42.5,29.98,NNW,333,4.0,13.0,33,0.00,,,0.00,Wunderground v.1.15,2013-08-05 22:37:00,
2013-08-05 18:42:00,73.1,43.1,29.99,NW,324,2.0,10.0,34,0.00,,,0.00,Wunderground v.1.15,2013-08-05 22:42:00,
2013-08-05 18:47:00,73.0,43.0,29.99,NNW,348,6.0,10.0,34,0.00,,,0.00,Wunderground v.1.15,2013-08-05 22:47:00,
2013-08-05 18:52:00,72.9,42.9,29.99,NW,314,0.0,6.0,34,0.00,,,0.00,Wunderground v.1.15,2013-08-05 22:52:00,
2013-08-05 18:57:00,72.8,44.3,29.99,NW,322,0.0,6.0,36,0.00,,,0.00,Wunderground v.1.15,2013-08-05 22:57:00,
2013-08-05 19:02:00,72.5,44.0,30.00,WNW,293,5.0,7.0,36,0.00,,,0.00,Wunderground v.1.15,2013-08-05 23:02:00,
2013-08-05 19:07:00,72.4,44.6,30.00,NW,306,1.0,7.0,37,0.00,,,0.00,Wunderground v.1.15,2013-08-05 23:07:00,
2013-08-05 19:12:00,72.1,43.7,30.00,NNW,336,3.0,9.0,36,0.00,,,0.00,Wunderground v.1.15,2013-08-05 23:12:00,
2013-08-05 19:17:00,72.0,44.3,30.00,WNW,298,5.0,9.0,37,0.00,,,0.00,Wunderground v.1.15,2013-08-05 23:17:00,
2013-08-05 19:22:00,71.8,44.1,30.00,North,355,5.0,9.0,37,0.00,,,0.00,Wunderground v.1.15,2013-08-05 23:22:00,
2013-08-05 19:27:00,71.7,44.7,30.00,NW,307,0.0,10.0,38,0.00,,,0.00,Wunderground v.1.15,2013-08-05 23:27:00,
2013-08-05 19:32:00,71.4,43.8,30.00,NNW,334,1.0,5.0,37,0.00,,,0.00,Wunderground v.1.15,2013-08-05 23:32:00,
2013-08-05 19:37:00,71.2,45.0,30.00,NNW,344,1.0,5.0,39,0.00,,,0.00,Wunderground v.1.15,2013-08-05 23:37:00,
2013-08-05 19:42:00,70.9,44.7,30.01,NW,309,0.0,3.0,39,0.00,,,0.00,Wunderground v.1.15,2013-08-05 23:42:00,
2013-08-05 19:47:00,70.5,45.0,30.01,NW,318,0.0,5.0,40,0.00,,,0.00,Wunderground v.1.15,2013-08-05 23:47:00,
2013-08-05 19:52:00,70.0,45.2,30.01,NW,319,0.0,1.0,41,0.00,,,0.00,Wunderground v.1.15,2013-08-05 23:52:00,
2013-08-05 19:57:00,69.4,45.3,30.01,NW,319,0.0,1.0,42,0.00,,,0.00,Wunderground v.1.15,2013-08-05 23:57:00,
2013-08-05 20:02:00,68.7,45.3,30.01,NW,318,0.0,1.0,43,0.00,,,0.00,Wunderground v.1.15,2013-08-06 00:02:00,
2013-08-05 20:07:00,68.1,45.4,30.01,NW,319,0.0,1.0,44,0.00,,,0.00,Wunderground v.1.15,2013-08-06 00:07:00,
2013-08-05 20:12:00,67.6,45.5,30.02,NW,319,0.0,1.0,45,0.00,,,0.00,Wunderground v.1.15,2013-08-06 00:12:00,
2013-08-05 20:17:00,67.0,45.5,30.02,NW,318,0.0,1.0,46,0.00,,,0.00,Wunderground v.1.15,2013-08-06 00:17:00,
2013-08-05 20:22:00,66.5,45.1,30.02,NW,318,0.0,0.0,46,0.00,,,0.00,Wunderground v.1.15,2013-08-06 00:22:00,
2013-08-05 20:27:00,66.1,45.3,30.02,NW,319,0.0,0.0,47,0.00,,,0.00,Wunderground v.1.15,2013-08-06 00:27:00,
2013-08-05 20:32:00,65.6,45.4,30.03,NW,319,0.0,0.0,48,0.00,,,0.00,Wunderground v.1.15,2013-08-06 00:32:00,
2013-08-05 20:37:00,65.1,46.0,30.03,NW,319,0.0,0.0,50,0.00,,,0.00,Wunderground v.1.15,2013-08-06 00:37:00,
2013-08-05 20:42:00,64.7,46.1,30.03,NW,319,0.0,0.0,51,0.00,,,0.00,Wunderground v.1.15,2013-08-06 00:42:00,
2013-08-05 20:47:00,64.3,46.3,30.03,NW,318,0.0,2.0,52,0.00,,,0.00,Wunderground v.1.15,2013-08-06 00:47:00,
2013-08-05 20:52:00,64.1,46.1,30.04,NW,318,0.0,2.0,52,0.00,,,0.00,Wunderground v.1.15,2013-08-06 00:52:00,
2013-08-05 20:57:00,64.1,46.1,30.04,NW,319,0.0,2.0,52,0.00,,,0.00,Wunderground v.1.15,2013-08-06 00:57:00,
2013-08-05 21:02:00,63.9,46.4,30.04,NW,319,0.0,0.0,53,0.00,,,0.00,Wunderground v.1.15,2013-08-06 01:02:00,
2013-08-05 21:07:00,63.8,47.3,30.05,NW,319,0.0,0.0,55,0.00,,,0.00,Wunderground v.1.15,2013-08-06 01:07:00,
2013-08-05 21:12:00,63.4,46.9,30.05,NW,318,0.0,0.0,55,0.00,,,0.00,Wunderground v.1.15,2013-08-06 01:12:00,
2013-08-05 21:17:00,62.9,47.4,30.05,NW,319,0.0,0.0,57,0.00,,,0.00,Wunderground v.1.15,2013-08-06 01:17:00,
2013-08-05 21:22:00,62.4,47.4,30.05,NW,319,1.0,1.0,58,0.00,,,0.00,Wunderground v.1.15,2013-08-06 01:22:00,
2013-08-05 21:27:00,62.0,47.5,30.05,NW,318,0.0,1.0,59,0.00,,,0.00,Wunderground v.1.15,2013-08-06 01:27:00,
2013-08-05 21:32:00,61.8,47.3,30.05,NW,319,0.0,0.0,59,0.00,,,0.00,Wunderground v.1.15,2013-08-06 01:32:00,
2013-08-05 21:37:00,61.4,47.4,30.06,NW,319,0.0,0.0,60,0.00,,,0.00,Wunderground v.1.15,2013-08-06 01:37:00,
2013-08-05 21:42:00,61.1,47.5,30.06,NW,319,0.0,0.0,61,0.00,,,0.00,Wunderground v.1.15,2013-08-06 01:42:00,
2013-08-05 21:48:00,60.8,47.7,30.05,NW,319,0.0,1.0,62,0.00,,,0.00,Wunderground v.1.15,2013-08-06 01:48:00,
2013-08-05 21:53:00,60.5,47.4,30.06,NW,319,0.0,0.0,62,0.00,,,0.00,Wunderground v.1.15,2013-08-06 01:53:00,
2013-08-05 21:58:00,60.3,47.2,30.06,NW,319,0.0,1.0,62,0.00,,,0.00,Wunderground v.1.15,2013-08-06 01:58:00,
2013-08-05 22:03:00,60.2,47.6,30.06,NW,319,0.0,0.0,63,0.00,,,0.00,Wunderground v.1.15,2013-08-06 02:03:00,
2013-08-05 22:08:00,60.0,48.2,30.06,NW,319,0.0,0.0,65,0.00,,,0.00,Wunderground v.1.15,2013-08-06 02:08:00,
2013-08-05 22:13:00,59.7,48.3,30.06,NW,318,0.0,0.0,66,0.00,,,0.00,Wunderground v.1.15,2013-08-06 02:13:00,
2013-08-05 22:18:00,59.4,48.0,30.06,NW,319,0.0,1.0,66,0.00,,,0.00,Wunderground v.1.15,2013-08-06 02:18:00,
2013-08-05 22:23:00,59.0,48.4,30.06,NW,318,0.0,0.0,68,0.00,,,0.00,Wunderground v.1.15,2013-08-06 02:23:00,
2013-08-05 22:28:00,59.0,48.4,30.06,NW,319,0.0,1.0,68,0.00,,,0.00,Wunderground v.1.15,2013-08-06 02:28:00,
2013-08-05 22:33:00,59.0,48.4,30.06,NW,319,0.0,0.0,68,0.00,,,0.00,Wunderground v.1.15,2013-08-06 02:33:00,
2013-08-05 22:38:00,58.8,48.3,30.06,NW,319,0.0,0.0,68,0.00,,,0.00,Wunderground v.1.15,2013-08-06 02:38:00,
2013-08-05 22:43:00,58.5,48.4,30.06,NW,318,0.0,0.0,69,0.00,,,0.00,Wunderground v.1.15,2013-08-06 02:43:00,
2013-08-05 22:48:00,58.4,48.3,30.05,NW,319,0.0,1.0,69,0.00,,,0.00,Wunderground v.1.15,2013-08-06 02:48:00,
2013-08-05 22:53:00,58.2,48.1,30.06,NW,318,0.0,1.0,69,0.00,,,0.00,Wunderground v.1.15,2013-08-06 02:53:00,
2013-08-05 22:58:00,58.0,48.3,30.06,NW,319,0.0,1.0,70,0.00,,,0.00,Wunderground v.1.15,2013-08-06 02:58:00,
2013-08-05 23:03:00,57.8,48.1,30.06,NW,318,0.0,0.0,70,0.00,,,0.00,Wunderground v.1.15,2013-08-06 03:03:00,
2013-08-05 23:08:00,57.6,48.3,30.06,NW,319,0.0,0.0,71,0.00,,,0.00,Wunderground v.1.15,2013-08-06 03:08:00,
2013-08-05 23:14:00,57.3,48.0,30.06,NW,319,0.0,0.0,71,0.00,,,0.00,Wunderground v.1.15,2013-08-06 03:14:00,
2013-08-05 23:19:00,57.2,47.9,30.06,NW,318,0.0,0.0,71,0.00,,,0.00,Wunderground v.1.15,2013-08-06 03:19:00,
2013-08-05 23:24:00,57.1,48.2,30.07,NW,319,0.0,0.0,72,0.00,,,0.00,Wunderground v.1.15,2013-08-06 03:24:00,
2013-08-05 23:29:00,57.0,48.4,30.07,NW,319,0.0,0.0,73,0.00,,,0.00,Wunderground v.1.15,2013-08-06 03:29:00,
2013-08-05 23:34:00,57.0,48.4,30.07,NW,318,0.0,2.0,73,0.00,,,0.00,Wunderground v.1.15,2013-08-06 03:34:00,
2013-08-05 23:39:00,56.9,48.3,30.07,NW,319,0.0,2.0,73,0.00,,,0.00,Wunderground v.1.15,2013-08-06 03:39:00,
2013-08-05 23:44:00,56.8,48.2,30.07,NW,318,0.0,0.0,73,0.00,,,0.00,Wunderground v.1.15,2013-08-06 03:44:00,
2013-08-05 23:49:00,56.5,48.3,30.07,NW,318,0.0,0.0,74,0.00,,,0.00,Wunderground v.1.15,2013-08-06 03:49:00,
2013-08-05 23:54:00,56.3,48.5,30.07,NW,318,0.0,0.0,75,0.00,,,0.00,Wunderground v.1.15,2013-08-06 03:54:00,
2013-08-05 23:59:00,56.1,48.6,30.07,NW,319,0.0,0.0,76,0.00,,,0.00,Wunderground v.1.15,2013-08-06 03:59:00,